Location: Ch?enovice
(49.7164°N, 15.2160°E)
Time: 20:25:10
(UTC+00:00)

Okean 1 Rocket - Pass Details

Date: 23 May 2024
Orbit: 602 x 631 km, 82.5° (Epoch: 21 June)

Event Time Altitude Azimuth Distance (km) Brightness Sun altitude
Rises 01:36:03 0° 355° (N) 2,879 7.3 -11.2°
Reaches altitude 10° 01:38:24 10° 4° (N) 1,966 6.5 -11.0°
Maximum altitude 01:42:29 39° 73° (ENE) 916 4.5 -10.6°
Drops below altitude 10° 01:46:32 10° 143° (SE) 1,945 5.5 -10.1°
Sets 01:48:51 0° 151° (SSE) 2,843 6.2 -9.9°
